Location: Unspecified
(0.0000°N, 0.0000°E)
Time: 18:46:56
(UTC+00:00)

UNISAT 6 - Visible Passes

Search period start: 06 December 2019 00:00
Search period end: 16 December 2019 00:00
Orbit: 608 x 688 km, 97.7° (Epoch: 06 December)

Date Brightness Start Highest point End Pass type
(mag) Time Alt. Az. Time Alt. Az. Time Alt. Az.
06 Dec ? 20:19:35 14° S 20:19:35 14° S 20:20:08 10° S visible
08 Dec ? 19:34:14 10° SSE 19:34:14 10° SSE 19:34:14 10° SSE visible
09 Dec ? 20:00:25 14° S 20:00:25 14° S 20:01:09 10° S visible
10 Dec ? 20:26:37 14° SSW 20:26:37 14° SSW 20:27:14 10° SSW visible
12 Dec ? 19:41:15 12° SSE 19:41:15 12° SSE 19:41:44 10° SSE visible
13 Dec ? 20:07:26 16° S 20:07:26 16° S 20:08:22 10° S visible
14 Dec ? 20:33:38 14° SSW 20:33:38 14° SSW 20:34:16 10° SSW visible
